Find Starlink 34936

NORAD ID: 65898 Int'l Des: 2025-224 Owner: SPXS Country: US Constellation: starlink operational
LEOCIRCULAR

Current View

Loading 3D Globe...

About Starlink 34936

Description loading...

Upcoming Passes

Passes for default location (London). Set your location on the main map for personalized predictions.

Altitude History

Loading altitude history...

Two-Line Element Set

1 65898U 25224S 26150.94196286 .00041417 00000-0 12299-2 0 9992
2 65898 53.1611 348.1441 0001387 88.2940 271.8222 15.34407485 37487
Epoch: May 30, 2026 • Age: 14 hours

Current Status

Altitude 468.1 km
Velocity 7.64 km/s
Sub-Earth Point 53.12°N, 3.17°W
Launch Date Oct 7, 2025
Age 0.6 years
Type internet

Technical Details

Classification Payload
Mass 575.00 kg
Dry Mass 530.00 kg
Total Mass 575.00 kg
Length 0.30 m
Diameter 4.10 m
Span 29.00 m
Shape Box + pan
Manufacturer SPXS
Bus Type Starlink V2MO
Phase Status In Orbit
Owner/State SPXS/US

Most Searched